Regional Weather Roundup
Issued by NWS Wakefield, VA

Home | Current Version | Previous Version | Graphics & Text | Print | Product List | Glossary On
Versions: 1 2 3 4 5 6 7 8 9 10 11 12 13 14 15 16 17 18 19 20 21 22 23 24 25 26 27 28 29 30 31 32 33 34 35 36 37 38 39 40 41 42 43 44 45 46 47 48 49 50
431
ASUS41 KAKQ 180915
RWRAKQ

REGIONAL WEATHER ROUNDUP
NATIONAL WEATHER SERVICE WAKEFIELD VA
400 AM EST WED JAN 18 2017

Note: "fair" indicates few or no clouds below 12,000 feet with no
significant weather and/or obstructions to visibility. * = Denotes
station may not report precipitation (e.g., rain,snow,etc.),
thunder or fog.

VAZ042-051-052>054-056-181000-
NORTHERN VIRGINIA

CITY           SKY/WX    TMP DP  RH WIND       PRES   REMARKS
WASH NATIONAL  CLOUDY    47  46  97 NE6       29.89R FOG
DULLES         FOG       46  45  96 N7        29.88S VSB 3/4
FORT BELVOIR   CLOUDY    45  44  98 CALM      29.87S
QUANTICO       FOG       46  46 100 NE13      29.87F VSB 1/2
FREDERICKSBRG* CLOUDY    56  56 100 SW3       29.85F
STAFFORD*      CLOUDY    54  54 100 CALM      29.89S
WARRENTON      FOG       50  47  90 CALM      29.86S VSB 1
CULPEPER*      FOG       44  44 100 CALM      29.86F VSB 1/2
MANASSAS*      NOT AVBL
LEESBURG*      FOG       45  45 100 N3        29.90S VSB 1
WINCHESTER     FOG       37  37 100 CALM      29.89S VSB 1
FRONT ROYAL*   CLOUDY    39  39 100 CALM      29.88S VSB 1/2
LURAY*         CLOUDY    43  43 100 NE7       29.86R FOG
$$

VAZ048-049-060>072-079>083-181000-
CENTRAL AND SOUTH CENTRAL VIRGINIA

CITY           SKY/WX    TMP DP  RH WIND       PRES   REMARKS
RICHMOND       CLOUDY    54  54 100 S5        29.87F FOG
CHESTERFIELD*  CLOUDY    57  43  58 SW5       29.89F
PETERSBURG*    CLOUDY    57  55  94 SW5       29.90F
HANOVER        MOCLDY    55  53  93 S5        29.88F FOG
TAPPAHANNOCK*  MOCLDY    58  58  99 SE7       29.87F
QUINTON*       PTSUNNY   56  56 100 MISG      29.88F
CHARLOTTSVILLE PTCLDY    54  50  86 CALM      29.84F
GORDONSVILLE*  FAIR      53  53 100 S7        29.84F FOG
ORANGE*          N/A     54  54 100 CALM      29.87F
LOUISA*        MOCLDY    59  57  94 CALM      29.85S
BUMPASS*       FAIR      55  55 100 SW3       29.86F
FARMVILLE*     CLOUDY    58  56  94 SW5       29.87F
CREWE*         CLOUDY    60  60 100 S6        29.89F
FORT PICKETT*  CLOUDY    58  55  88 SW9       29.90F
CHASE CITY*    CLOUDY    58  56  95 SW3       29.92F
CLARKSVILLE*   CLOUDY    59  57  94 W3        29.94R
SOUTH HILL*    CLOUDY    58  56  94 CALM      29.99S
LAWRENCEVILLE* CLOUDY    59  56  90 MISG      29.93S
EMPORIA*       CLOUDY    55  54  94 CALM      29.94S
$$

VAZ088>098-181000-
SOUTHEAST VIRGINIA

CITY           SKY/WX    TMP DP  RH WIND       PRES   REMARKS
NORFOLK        CLOUDY    60  55  83 W7        29.90S
VIRGINIA BEACH CLOUDY    59  54  83 W8        29.90S
NORFOLK NAVAL  CLOUDY    59  54  83 W6        29.92F
WEST POINT*    CLOUDY    56  55  97 CALM      29.89F
SALUDA*        CLOUDY    57  57  99 SW6       29.87F
NEWPORT NEWS   LGT RAIN  58  56  93 SW8       29.90F FOG
LANGLEY AFB    CLOUDY    59  57  94 SW12      29.90F
FORT EUSTIS    CLOUDY    55  54  94 CALM      29.88F
WILLIAMSBURG*  CLOUDY    59  57  94 SW6       29.90F
HR EXEC AP*    PTSUNNY   59  54  82 W5        29.90F
FRANKLIN*      CLOUDY    60  55  83 SW5       29.93S
US460-WAKEFLD  LGT RAIN  56  56 100 CALM      29.92F FOG
$$

VAZ020-022-025-037-045-181000-
WEST CENTRAL AND SOUTHWEST VIRGINIA

CITY           SKY/WX    TMP DP  RH WIND       PRES   REMARKS
STAUNTON*      PTCLDY    47  44  91 S5        29.88S
WAYNESBORO*    FAIR      55  45  67 SW7       29.87F
HOT SPRINGS VA CLOUDY    46  43  87 W24G30    29.90F
LYNCHBURG      CLOUDY    53  53 100 SW5       29.90F FOG
DANVILLE       CLOUDY    55  55 100 W3        29.94F
SOUTH BOSTON*  CLOUDY    58  56  95 SW5       29.94S
MARTINSVILLE   RAIN      53  52  97 S3        29.96F
ROANOKE        CLOUDY    58  47  66 NW8       29.93S
BLACKSBURG     CLOUDY    54  49  83 W8        29.98S
DUBLIN*        PTCLDY    56  49  75 NW13      29.97S
MARION*        MOCLDY    54  51  90 W15       29.99F
HILLSVILLE*    MOCLDY    55  52  91 CALM      29.96F
RICHLANDS*     CLOUDY   N/A N/A N/A NW9       30.03R
WISE*          CLOUDY    50  43  76 W9        30.04S
ABINGDON*      CLOUDY    56  51  81 W9        30.02S
$$

MDZ021>025-VAZ099-100-181000-
SOUTHERN MARYLAND AND THE DELMARVA PENINSULA

CITY           SKY/WX    TMP DP  RH WIND       PRES   REMARKS
PATUXENT RIVER CLOUDY    55  54  96 N8        29.86R
BAY BRIDGE APT FOG       39  39 100 N9        29.88S VSB 3/4
LEONARDTOWN    CLOUDY    54  52  94 CALM      29.88S
DOVER          FOG       44  44 100 CALM      29.84F VSB 1
GEORGETOWN     CLOUDY    51  50  96 CALM      29.87S FOG
EASTON         FOG       49  48  95 CALM      29.90F VSB 1
CAMBRIDGE      CLOUDY    45  45 100 CALM      29.87S VSB 1
SALISBURY      CLOUDY    51  50  96 SW6       29.86F
OCEAN CITY     FOG       50  50 100 CALM      29.86F VSB 3/4
WALLOPS ISLAND LGT RAIN  59  57  93 W14G24    29.86S
ACCOMACK*      CLOUDY    60  56  89 SW15G22   29.86F
$$

NCZ012>017-030>032-181000-
NORTH CENTRAL AND EASTERN NORTH CAROLINA

CITY           SKY/WX    TMP DP  RH WIND       PRES   REMARKS
ROANOKE RAPIDS FAIR      59  55  88 SW5       29.92F
RALEIGH        CLOUDY    62  56  80 SW9       29.94F
ELIZABETH CITY CLOUDY    59  56  89 MISG      29.92F
AHOSKIE*       CLOUDY    58  55  90 CALM      29.93S
EDENTON*       CLOUDY    62  56  81 SW9       29.94F
CURRITUCK*     CLOUDY    59  58  95 SW12      29.91F
KILL DEVIL HLS NOT AVBL
MANTEO         CLOUDY    58  55  92 W13G18    29.93F
CAPE HATTERAS  CLOUDY    62  57  83 SW14G22   29.97F HAZE
TARBORO*       NOT AVBL
GOLDSBORO      CLOUDY    62  61  96 SW7       29.94F
WASHINGTON     CLOUDY    61  56  84 SW12      29.95F
GREENVILLE     CLOUDY    63  59  88 SW8       29.98S
NEW BERN       CLOUDY    61  56  83 SW8       29.99F
WILMINGTON     CLOUDY    63  58  83 SW12      30.02F
$$

VAZ048-181000-
ELSEWHERE

CITY           SKY/WX    TMP DP  RH WIND       PRES   REMARKS
HARRISBURG PA  FOG       38  38 100 CALM      29.89F VSB 1
BALTIMORE      FOG       45  45 100 CALM      29.88S VSB 1/2
ANNAPOLIS      FOG       44  41  89 NW6       29.88R VSB 1
ANDREWS AFB    CLOUDY    46  46  99 CALM      29.86F FOG
PHILADELPHIA   LGT RAIN  43  41  93 N5        29.89F
HENDERSON NC   CLOUDY    57  53  86 CALM      29.94R
GREENSBORO     CLOUDY    62  57  83 W9        29.94R
ROCKY MOUNT    CLOUDY    62  57  83 SW13      29.94F
$$

VAZ100-181000-
MARINE

STATION/POSITION TIME  TEMP    WIND        PRES    WAVE   SWELL
                       AIR SEA DIR/SP/G            HT/PER HT/PER
                 (UTC) (F)     (DEG/KT/KT) (MB)    (FT/S) (FT/S)
CAPE MAY NJ      0848   48 41  230/  1/  2 1010.8F
LEWES DE         0836   49 41   CALM  /  1 1011.1F
OCEAN-CITY-INLET 0836   52 42   50/  2/  3 1011.4F
WACHAPREAGUE VA  0842   58 47  230/  8/ 11 1011.2F
THOMAS POINT MD  0900   44 39  350/  8/  8   N/A
GOOSES REEF MD   0900   40     350/  6/  6 1012.3    1
COVE POINT MD    0842   40     350/ 12/ 15 1012.0R
SOLOMONS ISLAND  0842   54 41  360/  5/  5   N/A
BISHOPS HEAD MD  0848   51 43  310/  6/  9 1011.3R
PINEY POINT MD   0848          290/  5/  7   N/A
POTOMAC MD       0900   50 40  270/ 10/ 12 1010.1    1/ 2
CAMBRIDGE MD     0848   42 39  340/  3/  4 1010.9R
LEWISETTA VA     0842   59 45  260/ 11/ 13 1010.7F
RAPPAHANNOCK LGT 0848          210/ 16/ 16 1011.8F
STINGRAY PT      0850   50     240/ 12/ 14 1011.6F
YORK RVR RNG VA  0842   53     260/  7/  9 1011.5F
YORKTOWN VA      0836   58 44  230/ 15/ 19 1011.6F
JAMESTOWN VA     0900   54 44  200/  8/ 10   N/A     0
DOMINION TERM VA 0842   54     310/  5/  5 1013.0F
KIPTOPEKE VA     0842      43  290/  2/  4   N/A
CHES BAY BRIDGE  0842   52 43  270/ 11/ 11 1012.5R
CAPE HENRY VA    0842   59     260/  7/ 10   N/A
WILLOUBY STN VA  0842   57     260/ 10/ 10 1013.5F
S CRANEY ISL VA  0842   60     270/  4/  5 1012.8R
CAPE HENRY BUOY  0842      45                N/A     2/10
OFFSHORE WE BUOY 0851      49                N/A     2/ 4
64NM E OF VA BCH 0850   58 56  230/ 19/ 21 1012.0F   5/ 5
DUCK PIER NC     0842   58 44  220/ 15/ 17 1012.5F
44100 DUCK FRF   0835      47                N/A     2/ 8
44056 DUCK FRF   0830      45                N/A     1/10
OREGON INLET NC  0842   52 51  200/ 13/ 14 1013.6F
HATTERAS NC      0842   62 53  220/ 11/ 16 1014.8F
DIAMOND SHLS NC  0850   70 72  250/ 21/ 27 1014.9F   7/ 6   2/10
CAPE LOOKOUT NC  0900   62     230/ 12/ 16 1015.6F
$$




USA.gov is the U.S. government's official web portal to all federal, state and local government web resources and services.